Weather History for Wright-Patt AFB, OH

Change the Weather History Date:

Tuesday, July 15, 2014

  Actual Average Record
Temperature  
Mean Temperature 66 °F -  
Max Temperature 72 °F 82 °F 91 °F (2006)
Min Temperature 60 °F 61 °F 55 °F (2001)
Cooling Degree Days 2    
Growing Degree Days 16 (Base 50)    
Moisture  
Dew Point 55 °F    
Average Humidity 68    
Maximum Humidity 97    
Minimum Humidity 46    
Precipitation  
Precipitation 0.00 in - - ()
Sea Level Pressure  
Sea Level Pressure 29.88 in    
Wind  
Wind Speed 9 mph (West)    
Max Wind Speed 18 mph    
Max Gust Speed 23 mph    
Visibility 10 miles    
Events      
Averages and records for this station are not official NWS values.
T = Trace of Precipitation, MM = Missing Value Source: NWS Daily Summary

Daily Weather History Graph

Daily Weather History Graph

Search for Another Location

Airport:

Trip Planner

Search our weather history database for the weather conditions in past years. The results will help you decide how hot, cold, wet, or windy it might be!

Date:

Astronomy

Jul. 15, 2014 Rise Set
Actual Time 6:20 AM EDT 9:03 PM EDT
Civil Twilight 5:48 AM EDT 9:35 PM EDT
Nautical Twilight 5:09 AM EDT 10:14 PM EDT
Astronomical Twilight 4:23 AM EDT 10:59 PM EDT
Moon 11:11 PM EDT (7/15) 10:13 AM EDT (7/15)
Length of Visible Light 15h 46m
Length of Day
14h 42m
Waning Gibbous, 85% of the Moon is Illuminated
Jul 15
Waning Gibbous
Jul 18
Last Quarter
Jul 26
New
Aug 3
First Quarter
Aug 10
Full

Hourly Weather History & Observations

Time (EDT) Temp. Dew Point Humidity Pressure Visibility Wind Dir Wind Speed Gust Speed Precip Events Conditions
12:58 AM 66.7 °F 65.8 °F 97% 29.84 in 10.0 mi SW 6.9 mph - N/A   Mostly Cloudy
1:58 AM 66.6 °F 65.7 °F 97% 29.83 in 10.0 mi WSW 8.1 mph - N/A   Mostly Cloudy
2:58 AM 66.2 °F 64.9 °F 96% 29.81 in 10.0 mi SW 5.8 mph - N/A   Scattered Clouds
3:58 AM 65.8 °F 64.8 °F 96% 29.81 in 10.0 mi WSW 5.8 mph - N/A   Mostly Cloudy
4:58 AM 64.9 °F 63.5 °F 95% 29.81 in 10.0 mi WSW 6.9 mph - N/A   Scattered Clouds
5:58 AM 63.1 °F 60.8 °F 92% 29.83 in 10.0 mi WSW 6.9 mph - N/A   Clear
6:58 AM 61.0 °F 58.5 °F 91% 29.84 in 10.0 mi SW 4.6 mph - N/A   Clear
7:58 AM 63.0 °F 58.6 °F 86% 29.86 in 10.0 mi WSW 6.9 mph - N/A   Clear
8:58 AM 64.9 °F 58.6 °F 80% 29.87 in 10.0 mi WSW 10.4 mph - N/A   Clear
9:58 AM 67.1 °F 59.0 °F 75% 29.87 in 10.0 mi West 9.2 mph - N/A   Clear
10:58 AM 68.2 °F 56.8 °F 67% 29.88 in 10.0 mi West 11.5 mph - N/A   Scattered Clouds
11:58 AM 69.8 °F 56.1 °F 62% 29.88 in 10.0 mi West 12.7 mph - N/A   Partly Cloudy
12:58 PM 71.8 °F 53.8 °F 53% 29.88 in 10.0 mi West 16.1 mph 21.9 mph N/A   Scattered Clouds
1:00 PM 71.6 °F 53.6 °F 53% 29.89 in 10.0 mi West 15.0 mph 21.9 mph N/A   Scattered Clouds
1:18 PM 71.6 °F 53.6 °F 53% 29.89 in 10.0 mi WSW 15.0 mph 19.6 mph N/A   Mostly Cloudy
1:58 PM 72.3 °F 50.5 °F 46% 29.89 in 10.0 mi West 10.4 mph - N/A   Clear
2:58 PM 71.2 °F 50.5 °F 48% 29.89 in 10.0 mi West 18.4 mph 23.0 mph N/A   Scattered Clouds
3:34 PM 71.6 °F 50.0 °F 46% 29.89 in 10.0 mi WNW 13.8 mph 21.9 mph N/A   Scattered Clouds
3:58 PM 70.7 °F 49.6 °F 47% 29.90 in 10.0 mi West 13.8 mph - N/A   Partly Cloudy
4:11 PM 69.8 °F 50.0 °F 49% 29.89 in 10.0 mi West 12.7 mph - N/A   Scattered Clouds
4:58 PM 70.3 °F 50.5 °F 49% 29.89 in 10.0 mi West 17.3 mph 21.9 mph N/A   Scattered Clouds
5:58 PM 71.4 °F 49.5 °F 46% 29.91 in 10.0 mi West 15.0 mph - N/A   Clear
6:58 PM 69.6 °F 50.7 °F 51% 29.90 in 10.0 mi West 11.5 mph 20.7 mph N/A   Partly Cloudy
7:58 PM 67.8 °F 50.9 °F 55% 29.91 in 10.0 mi WNW 8.1 mph - N/A   Partly Cloudy
8:58 PM 65.7 °F 50.5 °F 58% 29.92 in 10.0 mi West 6.9 mph - N/A   Clear
9:58 PM 63.1 °F 51.6 °F 66% 29.94 in 10.0 mi West 5.8 mph - N/A   Clear
10:58 PM 61.9 °F 52.0 °F 70% 29.95 in 10.0 mi West 4.6 mph - N/A   Clear
11:58 PM 60.4 °F 51.8 °F 73% 29.96 in 10.0 mi West 5.8 mph - N/A   Clear